Tracking 29511 objects as of 15-Sep-2024
HD Live streaming from Space Station
objects crossing your sky now

FENGYUN 1C DEB

Track FENGYUN 1C DEB now!
10-day predictions


NORAD ID: 30338
Int'l Code: 1999-025AAZ
Perigee: 553.8 km
Apogee: 986.8 km
Inclination: 98.5 °
Period: 100.1 minutes
Semi major axis: 7141 km
RCS: 0.0507 m2 (small)
Launch date: May 10, 1999
Source: People's Republic of China (PRC)
Launch site: Taiyaun Space Center, China (TSC)

Note: This is SATELLITE DEBRIS
Your satellite tracking list
Your tracking list is empty




NASA's NSSDC Master Catalog

Two Line Element Set (TLE):
1 30338U 99025AAZ 24258.94074166  .00019911  00000-0  37952-2 0  9999
2 30338  98.5128 323.4461 0303172 124.2105  47.5216 14.38592068915967
Source of the keplerian elements: AFSPC